Prescott, AZ

3:37 PM MST on November 17, 2019 (GMT -0700)
Love

Weather History for KPRC - September, 2019

Change the Weather History Date:

Friday, September 20, 2019

  Actual Average Record
Temperature  
Mean Temperature 64 °F 66 °F  
Max Temperature 78 °F 81 °F 90 °F (2010)
Min Temperature 49 °F 52 °F 32 °F (1978)
Degree Days  
Heating Degree Days 2    
Month to date heating degree days 1  
Since 1 July heating degree days 1  
Cooling Degree Days 0    
Month to date cooling degree days 155  
Year to date cooling degree days 1130  
Growing Degree Days 14 (Base 50)    
Moisture  
Dew Point 26 °F    
Average Humidity 27    
Maximum Humidity 56    
Minimum Humidity 10    
Precipitation  
Precipitation 0.00 in 0.05 in 1.13 in (1952)
Month to date precipitation 1.39 1.07  
Year to date precipitation 9.50 10.73  
Sea Level Pressure  
Sea Level Pressure 29.80 in    
Wind  
Wind Speed 6 mph ()    
Max Wind Speed 23 mph    
Max Gust Speed 31 mph    
Visibility 10.0 miles    
Events      
T = Trace of Precipitation, MM = Missing Value Source: Averaged Metar Reports

Daily Weather History Graph

Daily Weather History Graph

Search for Another Location

Airport or City:

Astronomy

Sep. 20, 2019 Rise Set
Actual Time 6:16 AM MST 6:29 PM MST
Civil Twilight 5:50 AM MST 6:54 PM MST
Nautical Twilight 5:21 AM MST 7:24 PM MST
Astronomical Twilight 4:51 AM MST 7:53 PM MST
Moon 10:36 PM MST (9/20) 12:10 PM MST (9/20)
Length of Visible Light 13h 03m
Length of Day
12h 13m
Waning Gibbous, 64% of the Moon is Illuminated
Sep 20
Waning Gibbous
Sep 21
Last Quarter
Sep 28
New
Oct 5
First Quarter
Oct 13
Full

Hourly Weather History & Observations

Time (MST) Temp. Dew Point Humidity Pressure Visibility Wind Dir Wind Speed Gust Speed Precip Events Conditions
12:53 AM 55.0 °F 28.9 °F 37% 29.73 in 10.0 mi SW 4.6 mph - N/A   Clear
1:53 AM 55.0 °F 28.9 °F 37% 29.74 in 10.0 mi Calm Calm - N/A   Clear
2:53 AM 57.9 °F 28.9 °F 33% 29.73 in 10.0 mi SSE 5.8 mph - N/A   Clear
3:53 AM 55.0 °F 30.9 °F 40% 29.75 in 10.0 mi Calm Calm - N/A   Clear
4:53 AM 55.0 °F 33.1 °F 43% 29.75 in 10.0 mi SE 5.8 mph - N/A   Clear
5:53 AM 51.1 °F 34.0 °F 52% 29.78 in 10.0 mi SW 3.5 mph - N/A   Clear
6:53 AM 51.1 °F 36.0 °F 56% 29.81 in 10.0 mi South 3.5 mph - N/A   Clear
7:53 AM 60.1 °F 37.0 °F 42% 29.80 in 10.0 mi South 4.6 mph - N/A   Clear
8:53 AM 68.0 °F 28.9 °F 23% 29.81 in 10.0 mi Variable 5.8 mph - N/A   Clear
9:53 AM 71.1 °F 26.1 °F 19% 29.81 in 10.0 mi SSW 10.4 mph - N/A   Clear
10:53 AM 73.9 °F 26.1 °F 17% 29.81 in 10.0 mi SW 12.7 mph 20.7 mph N/A   Clear
11:53 AM 73.9 °F 27.0 °F 18% 29.82 in 10.0 mi SSW 17.3 mph 24.2 mph N/A   Clear
12:53 PM 77.0 °F 23.0 °F 13% 29.80 in 10.0 mi SSW 13.8 mph 20.7 mph N/A   Clear
1:53 PM 77.0 °F 19.0 °F 11% 29.79 in 10.0 mi WSW 16.1 mph 24.2 mph N/A   Clear
2:53 PM 77.0 °F 19.0 °F 11% 29.78 in 10.0 mi SW 21.9 mph 28.8 mph N/A   Clear
3:53 PM 75.9 °F 19.9 °F 12% 29.79 in 10.0 mi SW 10.4 mph 25.3 mph N/A   Clear
4:53 PM 75.0 °F 19.0 °F 12% 29.80 in 10.0 mi SW 18.4 mph 23.0 mph N/A   Clear
5:53 PM 73.0 °F 14.0 °F 11% 29.81 in 10.0 mi SW 12.7 mph - N/A   Clear
6:53 PM 68.0 °F 16.0 °F 14% 29.83 in 10.0 mi SW 5.8 mph - N/A   Clear
7:53 PM 61.0 °F 19.9 °F 21% 29.84 in 10.0 mi SW 5.8 mph - N/A   Clear
8:53 PM 57.9 °F 26.1 °F 30% 29.85 in 10.0 mi South 6.9 mph - N/A   Clear
9:53 PM 55.9 °F 26.1 °F 32% 29.85 in 10.0 mi SSW 9.2 mph - N/A   Clear
10:53 PM 53.1 °F 25.0 °F 34% 29.86 in 10.0 mi SSW 9.2 mph - N/A   Clear
11:53 PM 52.0 °F 26.1 °F 37% 29.86 in 10.0 mi South 9.2 mph - N/A   Clear